DW2147 Weather Reports


Display with metric or nautical units.
time (UTC)temp
F
wind
direction
speed
MPH
gust
MPH
rain 1hr
in
rain 24hr
in
rain mn
in
humidity
%
barometer
mb
20260503203120 61 128 6.0 13.0 0.00 0.00 0.00 33 1016.0
20260503202617 61 0 6.0 15.0 0.00 0.00 0.00 38 1016.2
20260503202119 61 0 6.0 15.0 0.00 0.00 0.00 35 1016.3
20260503201618 61 0 5.0 13.0 0.00 0.00 0.00 34 1016.2
20260503201118 61 0 6.0 14.0 0.00 0.00 0.00 34 1016.3
20260503200618 61 0 5.0 14.0 0.00 0.00 0.00 35 1016.4
20260503200116 60 0 4.0 10.0 0.00 0.00 0.00 38 1016.4
20260503195614 60 0 3.0 9.0 0.00 0.00 0.00 40 1016.5
20260503195116 59 0 4.0 11.0 0.00 0.00 0.00 37 1016.6
20260503194614 59 0 6.0 14.0 0.00 0.00 0.00 35 1016.7
20260503194114 59 190 4.0 14.0 0.00 0.00 0.00 38 1016.7
20260503193612 60 270 5.0 12.0 0.00 0.00 0.00 38 1016.9
20260503193111 60 0 5.0 12.0 0.00 0.00 0.00 33 1017.0
20260503192614 62 0 4.0 11.0 0.00 0.00 0.00 36 1017.1
20260503192112 61 305 4.0 11.0 0.00 0.00 0.00 39 1017.1
20260503191609 60 0 4.0 12.0 0.00 0.00 0.00 38 1017.1
20260503191341 60 0 5.0 12.0 0.00 0.00 0.00 38 1017.2
20260503190609 59 0 5.0 16.0 0.00 0.00 0.00 41 1017.3
20260503190106 58 275 5.0 16.0 0.00 0.00 0.00 37 1017.3
20260503185604 58 0 5.0 12.0 0.00 0.00 0.00 36 1017.2
20260503185102 58 0 5.0 12.0 0.00 0.00 0.00 37 1017.3
20260503184559 59 0 5.0 12.0 0.00 0.00 0.00 34 1017.5
20260503184059 59 0 4.0 9.0 0.00 0.00 0.00 37 1017.5
20260503183601 59 0 4.0 12.0 0.00 0.00 0.00 36 1017.6
20260503183100 59 0 6.0 12.0 0.00 0.00 0.00 40 1017.6
20260503182557 59 0 6.0 12.0 0.00 0.00 0.00 38 1017.7
20260503182056 58 0 4.0 12.0 0.00 0.00 0.00 41 1017.7
20260503181555 58 0 4.0 13.0 0.00 0.00 0.00 37 1017.7
20260503181055 57 0 6.0 15.0 0.00 0.00 0.00 40 1017.8
20260503180553 57 0 6.0 15.0 0.00 0.00 0.00 36 1017.7
20260503180051 56 0 7.0 15.0 0.00 0.00 0.00 38 1017.7
20260503175548 56 0 6.0 15.0 0.00 0.00 0.00 37 1017.8
20260503175049 56 0 6.0 15.0 0.00 0.00 0.00 37 1018.1
20260503174548 57 161 5.0 15.0 0.00 0.00 0.00 36 1018.2
20260503174048 57 324 4.0 11.0 0.00 0.00 0.00 37 1018.1
20260503173543 57 0 5.0 14.0 0.00 0.00 0.00 40 1018.3
20260503173044 57 0 6.0 14.0 0.00 0.00 0.00 40 1018.3
20260503172543 57 24 5.0 13.0 0.00 0.00 0.00 39 1018.3
20260503172045 57 0 3.0 11.0 0.00 0.00 0.00 36 1018.2
20260503171543 56 284 4.0 11.0 0.00 0.00 0.00 39 1018.2
20260503171044 56 0 5.0 12.0 0.00 0.00 0.00 38 1018.4
20260503170542 56 242 7.0 17.0 0.00 0.00 0.00 39 1018.4
20260503150531 51 0 4.0 12.0 0.00 0.00 0.00 46 1019.1
20260503131252 44 0 5.0 11.0 0.00 0.00 0.00 63 1018.9
20260503130524 44 182 5.0 11.0 0.00 0.00 0.00 63 1018.9
20260503110504 35 0 2.0 5.0 0.00 0.00 0.00 71 1017.9
20260503090440 36 206 1.0 3.0 0.00 0.00 0.00 71 1016.9
20260503081424 36 292 0.0 2.0 0.00 0.00 0.00 71 1016.8
20260503080920 36 0 0.0 2.0 0.00 0.00 0.00 71 1016.8
20260503080418 36 291 0.0 2.0 0.00 0.00 0.00 71 1016.7
20260503080150 36 0 0.0 2.0 0.00 0.00 0.00 71 1016.6
20260503072915 37 0 0.0 1.0 0.00 0.00 0.00 72 1016.5
20260503072647 37 0 0.0 1.0 0.00 0.00 0.00 72 1016.5
20260503071914 37 293 1.0 3.0 0.00 0.00 0.00 72 1016.5
20260503071415 37 292 1.0 3.0 0.00 0.00 0.00 72 1016.5
20260503070915 37 0 0.0 2.0 0.00 0.00 0.00 72 1016.4
20260503070411 37 286 0.0 0.0 0.00 0.00 0.00 72 1016.6
20260503054858 40 0 1.0 3.0 0.00 0.00 0.00 71 1016.4
20260503054356 40 0 1.0 3.0 0.00 0.00 0.00 71 1016.4
20260503053857 40 0 1.0 3.0 0.00 0.00 0.00 70 1016.5
20260503053356 40 0 1.0 4.0 0.00 0.00 0.00 70 1016.5
20260503052857 40 0 1.0 4.0 0.00 0.00 0.00 70 1016.4
20260503052356 40 0 1.0 5.0 0.00 0.00 0.00 70 1016.4
20260503051857 40 0 1.0 5.0 0.00 0.00 0.00 70 1016.5
20260503051354 40 0 1.0 3.0 0.00 0.00 0.00 70 1016.4
20260503050854 40 0 1.0 3.0 0.00 0.00 0.00 70 1016.5
20260503050355 40 0 1.0 3.0 0.00 0.00 0.00 70 1016.5
20260503050125 40 0 0.0 2.0 0.00 0.00 0.00 69 1016.5
20260503045355 40 0 1.0 3.0 0.00 0.00 0.00 69 1016.6
20260503044854 40 0 1.0 3.0 0.00 0.00 0.00 69 1016.6
20260503044356 40 0 1.0 4.0 0.00 0.00 0.00 69 1016.5
20260503043848 40 0 1.0 4.0 0.00 0.00 0.00 69 1016.7
20260503043349 40 0 1.0 4.0 0.00 0.00 0.00 69 1016.7
20260503042850 41 0 1.0 2.0 0.00 0.00 0.00 69 1016.7
20260503042347 41 0 0.0 2.0 0.00 0.00 0.00 69 1016.6
20260503042118 41 0 0.0 2.0 0.00 0.00 0.00 69 1016.6
20260503041347 41 0 1.0 2.0 0.00 0.00 0.00 68 1016.6
20260503040838 41 0 1.0 3.0 0.00 0.00 0.00 68 1016.6
20260503040336 41 0 0.0 3.0 0.00 0.00 0.00 68 1016.7
20260503035834 41 0 0.0 2.0 0.00 0.00 0.00 68 1016.7
20260503035606 41 301 0.0 3.0 0.00 0.00 0.00 68 1016.7
20260503034836 41 300 0.0 3.0 0.00 0.00 0.00 68 1016.7
20260503034600 41 301 0.0 2.0 0.00 0.00 0.00 68 1016.6
20260503033829 41 300 1.0 3.0 0.00 0.00 0.00 68 1016.6
20260503033328 41 301 1.0 3.0 0.00 0.00 0.00 67 1016.6
20260503032824 41 0 2.0 3.0 0.00 0.00 0.00 67 1016.6
20260503032322 41 0 1.0 3.0 0.00 0.00 0.00 67 1016.6
20260503031823 41 0 1.0 3.0 0.00 0.00 0.00 67 1016.6
20260503031321 41 0 1.0 3.0 0.00 0.00 0.00 67 1016.6
20260503031052 41 0 2.0 4.0 0.00 0.00 0.00 67 1016.5
20260503030320 41 0 2.0 6.0 0.00 0.00 0.00 67 1016.6
20260503025817 41 0 2.0 6.0 0.00 0.00 0.00 67 1016.6
20260503025545 41 0 1.0 3.0 0.00 0.00 0.00 67 1016.7
20260503024814 42 0 1.0 3.0 0.00 0.00 0.00 67 1016.7
20260503024313 42 0 1.0 3.0 0.00 0.00 0.00 67 1016.8
20260503023811 42 0 1.0 3.0 0.00 0.00 0.00 67 1016.9
20260503023311 42 0 1.0 3.0 0.00 0.00 0.00 67 1016.9
20260503023041 42 0 1.0 3.0 0.00 0.00 0.00 67 1017.0
20260503022312 42 0 1.0 4.0 0.00 0.00 0.00 67 1016.9
20260503021809 42 0 1.0 4.0 0.00 0.00 0.00 67 1017.0
20260503021540 42 0 1.0 4.0 0.00 0.00 0.00 66 1016.9
20260503020807 42 0 1.0 4.0 0.00 0.00 0.00 66 1016.9
20260503020540 42 0 1.0 3.0 0.00 0.00 0.00 66 1016.9
20260503015807 42 0 1.0 3.0 0.00 0.00 0.00 66 1016.9
20260503015305 42 0 1.0 3.0 0.00 0.00 0.00 66 1016.9
20260503014807 42 0 1.0 3.0 0.00 0.00 0.00 66 1016.9
20260503014306 42 0 1.0 3.0 0.00 0.00 0.00 66 1016.9
20260503013805 42 0 2.0 6.0 0.00 0.00 0.00 66 1016.8
20260503013302 42 0 3.0 6.0 0.00 0.00 0.00 65 1016.9
20260503012802 42 0 3.0 5.0 0.00 0.00 0.00 65 1016.9
20260503012305 42 0 2.0 5.0 0.00 0.00 0.00 65 1016.8
20260503011802 42 0 2.0 6.0 0.00 0.00 0.00 65 1016.7
20260503011301 42 315 2.0 6.0 0.00 0.00 0.00 65 1016.7
20260503010802 43 0 2.0 4.0 0.00 0.00 0.00 65 1016.6
20260503010529 43 0 3.0 4.0 0.00 0.00 0.00 65 1016.5
20260503005757 43 0 3.0 5.0 0.00 0.00 0.00 65 1016.5
20260503005255 43 0 2.0 5.0 0.00 0.00 0.00 64 1016.5
20260503004755 43 0 3.0 6.0 0.00 0.00 0.00 64 1016.3
20260503004255 43 0 3.0 6.0 0.00 0.00 0.00 64 1016.3
20260503004027 43 0 3.0 6.0 0.00 0.00 0.00 64 1016.2
20260503003255 43 0 4.0 9.0 0.00 0.00 0.00 63 1016.1
20260503002755 43 0 4.0 9.0 0.00 0.01 0.00 63 1016.1
20260503002252 43 0 4.0 8.0 0.00 0.01 0.00 63 1016.2
20260503001753 43 342 4.0 8.0 0.00 0.02 0.00 63 1016.2
20260503001252 44 0 3.0 8.0 0.00 0.02 0.00 63 1016.2
20260503000750 44 0 3.0 8.0 0.00 0.02 0.00 63 1016.2
20260503000252 44 0 3.0 11.0 0.00 0.02 0.00 63 1016.1
20260502235750 44 0 4.0 11.0 0.00 0.02 0.00 63 1016.1
20260502235250 44 0 4.0 11.0 0.00 0.02 0.00 63 1016.1
20260502234749 44 0 4.0 11.0 0.00 0.02 0.00 63 1016.0
20260502234249 44 0 5.0 10.0 0.00 0.02 0.00 62 1016.0
20260502233750 44 0 6.0 13.0 0.00 0.02 0.00 62 1016.0
20260502233522 44 0 5.0 13.0 0.00 0.02 0.00 62 1015.9
20260502233022 45 0 5.0 11.0 0.00 0.02 0.00 62 1015.9
20260502232746 45 0 5.0 10.0 0.00 0.02 0.00 62 1015.9
20260502231747 45 0 4.0 11.0 0.00 0.02 0.00 62 1015.8
20260502231244 45 0 4.0 8.0 0.00 0.02 0.00 62 1015.7
20260502230743 45 0 3.0 8.0 0.00 0.02 0.00 63 1015.6
20260502230240 45 0 3.0 9.0 0.00 0.02 0.00 63 1015.7
20260502225740 45 0 4.0 9.0 0.00 0.02 0.00 63 1015.6
20260502225240 45 0 4.0 8.0 0.00 0.02 0.00 63 1015.7
20260502224739 46 0 5.0 13.0 0.00 0.02 0.00 63 1015.7
20260502224238 46 0 6.0 14.0 0.00 0.02 0.00 62 1015.8
20260502223737 46 0 6.0 14.0 0.00 0.02 0.00 61 1015.8
20260502223238 47 0 5.0 11.0 0.00 0.02 0.00 59 1015.6
20260502222738 47 0 5.0 11.0 0.00 0.02 0.00 59 1015.7
20260502222237 47 0 6.0 14.0 0.00 0.02 0.00 59 1015.6
20260502221737 47 0 8.0 14.0 0.00 0.02 0.00 58 1015.5
20260502221236 47 0 7.0 12.0 0.00 0.03 0.00 57 1015.5
20260502220734 47 0 5.0 13.0 0.00 0.03 0.00 57 1015.4
20260502220235 47 0 5.0 13.0 0.00 0.03 0.00 57 1015.3
20260502220005 47 0 4.0 11.0 0.00 0.03 0.00 57 1015.4
20260502215233 47 0 5.0 12.0 0.00 0.03 0.00 59 1015.2
20260502214733 47 0 5.0 12.0 0.00 0.03 0.00 58 1015.3
20260502214235 47 0 5.0 11.0 0.00 0.03 0.00 58 1015.2
20260502214004 47 0 5.0 11.0 0.00 0.03 0.00 58 1015.2
20260502213232 47 0 6.0 14.0 0.00 0.03 0.00 57 1015.2
20260502212730 47 0 7.0 15.0 0.00 0.03 0.00 57 1015.2
20260502212229 48 0 7.0 15.0 0.00 0.03 0.00 57 1015.2
20260502212003 48 0 6.0 13.0 0.00 0.03 0.00 56 1015.2
20260502211853 48 0 5.0 11.0 0.00 0.03 0.00 57 1015.2
20260502210730 48 346 6.0 15.0 0.00 0.03 0.00 57 1015.0
20260502210503 49 0 8.0 16.0 0.00 0.03 0.00 57 1015.0
20260502210004 49 30 8.0 16.0 0.00 0.03 0.00 56 1015.0
20260502205230 49 0 8.0 14.0 0.00 0.03 0.00 54 1014.9
20260502204958 49 0 8.0 13.0 0.00 0.03 0.00 51 1014.9
20260502204229 49 0 6.0 13.0 0.00 0.03 0.00 50 1014.9
20260502203728 49 0 6.0 13.0 0.00 0.03 0.00 52 1014.9